Find Starlink 32143

NORAD ID: 60296 Int'l Des: 2024-132 Owner: SPXS Country: US Constellation: starlink operational
LEOCIRCULAR

当前视图

正在加载3D地球...

About Starlink 32143

Starlink 32143 (NORAD 60296) is a starlink constellation satellite (v2 mini) launched Jul 28, 2024 by SPXS of US. It operates in LEO, CIRCULAR orbit with a mass of 730.00 kg.

即将过境

Passes for default location (London). Set your location on the main map for personalized predictions.

高度历史

Loading altitude history...

两行轨道根数

1 60296U 24132U 26263.29282699 .00000290 00000-0 21117-4 0 9998
2 60296 53.1592 227.2007 0001301 86.7569 273.3582 15.31702717121374
Epoch: Sep 20, 2026 • Age: 23 hours

当前状态

高度 490.0 km
远地点 / 近地点 N/A
速度 7.62 km/s
星下点 -53.01°S, 48.82°E
发射日期 Jul 28, 2024
运行时间 2.1 years
类型 internet

技术详情

分类 Payload
质量 730.00 kg
干质量 700.00 kg
长度 0.30 m
跨度 29.00 m
形状 ? Box + pan
制造商 SPXS
平台类型 Starlink V2M
阶段状态 In Orbit
所有者/国家 SPXS/US

Most Searched